Home   Weather   Bacău   Past weeks
Flag for Romania

Past Weather in Bacău, Romania — Yesterday and Last 2 Weeks

Now
55 °F

Sunny.


Feels Like: 52 °F
Forecast: 52 / 39 °F
Wind: 12 mph from South

Location: Bacau Airport

Current Time: Mar 25, 2019 at 10:30:23 am

Latest Report: Mar 25, 2019 at 9:30 am


Visibility: 10 mi

Pressure: 29.83 "Hg

Humidity: 59%

Dew Point: 41 °F

Location of BacăuLocation

Past Weather in Bacău — Graph

°F

Bacău Temperature Yesterday

Maximum temperature yesterday: 66 °F (at 2:00 pm)
Minimum temperature yesterday: 28 °F (at 5:30 am)
Average temperature yesterday: 49 °F

High & Low Weather Summary for the Past Weeks

 TemperatureHumidityPressure
High75 °F (Mar 18, 2:30 pm)100% (Mar 14, 7:00 am)30.54 "Hg (Mar 14, 7:00 am)
Low28 °F (Mar 24, 5:30 am)14% (Mar 24, 1:30 pm)29.56 "Hg (Mar 16, 11:00 am)
Average49 °F58%30.02 "Hg
* Reported Mar 10 9:00 am — Mar 25 9:00 am, Bacău. Weather by CustomWeather, © 2019

Note: Actual official high and low records may vary slightly from our data, if they occured in-between our weather recording intervals... More about our weather records

Advertising

Bacău Weather History for the Previous 24 Hours

Scroll right to see more
 ConditionsComfort  
Time TempWeatherWind HumidityBarometerVisibility
9:00 am
Mon, Mar 25
54 °FSunny.9 mph63%29.83 "Hg10 mi
8:30 am46 °FClear.7 mph82%29.86 "Hg4 mi
8:00 am45 °FClear.7 mph87%29.86 "Hg4 mi
7:30 am41 °FClear.3 mph87%29.89 "Hg4 mi
7:00 am39 °FFog.1 mph93%29.89 "Hg3 mi
6:30 am39 °FFog.8 mph93%29.89 "Hg3 mi
6:00 am37 °FFog.7 mph100%29.89 "Hg2 mi
5:30 am36 °FClear.2 mph93%29.92 "Hg4 mi
5:00 am36 °FClear.2 mph87%29.92 "Hg5 mi
4:30 am39 °FClear.1 mph87%29.95 "Hg5 mi
4:00 am39 °FClear.1 mph87%29.95 "Hg5 mi
3:30 am37 °FClear.No wind87%29.95 "Hg10 mi
3:00 am37 °FClear.3 mph87%29.98 "Hg10 mi
2:30 am39 °FChilly.1 mph87%29.98 "Hg4 mi
2:00 am41 °FClear.1 mph81%30.01 "Hg10 mi
1:30 am39 °FClear.1 mph81%30.01 "Hg10 mi
1:00 am43 °FClear.2 mph87%30.01 "Hg10 mi
12:30 am45 °FClear.2 mph76%30.04 "Hg10 mi
12:00 am43 °FClear.3 mph76%30.04 "Hg10 mi
11:30 pm
Sun, Mar 24
43 °FClear.1 mph76%30.04 "Hg10 mi
11:00 pm43 °FClear.1 mph76%30.04 "Hg10 mi
10:30 pm46 °FClear.2 mph71%30.04 "Hg10 mi
10:00 pm48 °FClear.6 mph66%30.07 "Hg10 mi
9:30 pm50 °FClear.5 mph67%30.07 "Hg10 mi
9:00 pm48 °FClear.5 mph66%30.07 "Hg10 mi
8:30 pm52 °FClear.6 mph67%30.04 "Hg10 mi
8:00 pm52 °FClear.8 mph67%30.04 "Hg10 mi
7:30 pm57 °FClear.8 mph55%30.04 "Hg10 mi
7:00 pm59 °FClear.13 mph42%30.04 "Hg10 mi
6:30 pm61 °FPassing clouds.7 mph31%30.04 "HgN/A
6:00 pm64 °FPassing clouds.8 mph26%30.01 "HgN/A
5:30 pm66 °FPassing clouds.9 mph24%30.01 "HgN/A
5:00 pm66 °FSunny.7 mph26%30.01 "Hg10 mi
4:30 pm66 °FSunny.2 mph22%30.01 "Hg10 mi
4:00 pm66 °FPassing clouds.6 mph18%30.01 "HgN/A
3:30 pm66 °FSunny.1 mph17%30.04 "Hg10 mi
3:00 pm66 °FSunny.2 mph17%30.04 "Hg10 mi
2:30 pm66 °FSunny.5 mph15%30.04 "Hg10 mi
2:00 pm66 °FSunny.5 mph15%30.07 "Hg10 mi
1:30 pm64 °FPassing clouds.6 mph14%30.07 "HgN/A
1:00 pm63 °FPassing clouds.6 mph15%30.09 "HgN/A
12:30 pm61 °FPassing clouds.6 mph15%30.09 "HgN/A
12:00 pm61 °FPassing clouds.5 mph16%30.12 "HgN/A
11:30 am59 °FSunny.3 mph20%30.12 "Hg10 mi
11:00 am57 °FPassing clouds.3 mph20%30.15 "HgN/A
10:30 am54 °FSunny.1 mph22%30.15 "Hg10 mi
10:00 am52 °FSunny.1 mph28%30.15 "Hg10 mi
Weather by CustomWeather, © 2019

See weather overview